Temperature
25 24 23 23 26 28 29 29 29 29 29 28 28 27 26 25 24 22 21 21 20 19 19 19 19 19 19 18 18 18 18 18 18 18 18 18 18 18 18 18 18 18 18 18 18 18 18 18 18
24 23 24 26 28 29 29 29 29 29 29 28 27 27 26 24 23 22 21 20 20 19 19 19 19 19 19 18 18 18 18 18 18 18 18 18 18 18 18 18 18 18 18 18 18 18 18 18 18
24 24 27 29 30 29 29 30 30 29 29 28 27 26 25 24 23 22 21 21 20 19 19 19 19 19 19 18 18 18 18 18 18 18 18 18 18 18 18 18 18 18 18 18 18 18 18 18 18
24 27 29 31 31 31 31 31 30 30 29 28 27 26 24 24 23 22 21 21 20 19 19 20 19 19 19 19 18 18 18 18 18 18 18 18 18 18 18 18 18 18 18 18 18 18 18 18 18
26 28 31 31 31 32 32 32 31 30 29 28 27 25 24 24 23 22 22 21 21 20 19 20 19 19 19 19 18 18 18 18 18 18 18 18 18 18 18 18 18 18 18 18 18 18 18 18 18
28 31 31 31 31 32 32 32 31 31 29 28 27 25 24 23 23 23 22 21 21 20 20 20 19 19 19 19 18 18 18 18 18 18 18 18 18 18 18 18 18 18 18 18 18 18 18 18 18
31 32 32 32 32 32 32 32 31 31 30 29 27 26 24 24 23 23 22 22 21 20 20 20 19 19 19 19 19 18 18 18 18 18 18 18 18 18 18 18 18 18 18 18 18 18 18 18 18
33 33 33 32 32 32 32 32 31 30 30 29 28 27 25 24 23 23 22 22 21 21 20 19 19 19 19 19 19 18 18 18 18 18 18 18 18 18 18 18 18 18 18 18 18 18 18 18 18
34 33 32 32 32 32 33 32 31 30 29 29 28 26 25 24 24 23 22 22 21 21 20 20 19 19 18 18 19 18 18 18 18 18 18 18 18 18 18 18 18 18 18 18 18 18 18 18 18
35 32 32 34 34 33 33 32 31 31 30 28 27 25 25 24 24 23 23 22 21 21 20 20 20 19 19 18 19 18 18 18 18 18 18 18 18 18 18 18 18 18 18 18 18 18 18 18 18
35 34 34 34 34 34 33 32 32 31 30 29 27 25 25 24 24 24 23 22 22 21 21 20 20 19 19 19 19 18 18 18 18 18 18 18 18 18 18 18 18 18 18 18 18 18 18 18 18
35 35 34 34 34 34 33 33 32 31 30 28 27 26 25 25 24 24 23 23 22 21 21 20 19 19 19 19 19 19 18 18 18 18 18 18 18 18 18 18 18 18 18 18 18 18 18 18 18
35 35 35 35 34 34 33 33 32 31 30 28 27 26 25 25 25 24 23 23 22 21 21 20 19 19 19 19 19 19 19 19 18 18 18 18 18 18 18 18 18 18 18 18 18 18 18 18 18
35 35 35 35 34 34 34 33 32 30 29 28 27 26 26 25 25 24 23 23 22 21 20 20 20 19 19 19 19 19 19 19 18 18 18 18 18 18 18 18 18 18 18 18 18 18 18 18 18
35 35 35 35 35 34 34 32 31 30 29 28 27 27 26 26 25 24 23 23 22 21 20 20 20 19 19 19 19 19 19 19 18 18 18 18 18 18 18 18 18 18 18 18 18 18 18 18 18
35 34 33 34 34 34 33 31 31 30 29 29 28 27 27 26 25 24 23 23 22 21 21 20 20 19 19 19 19 19 19 19 19 18 18 18 18 18 18 18 18 18 18 18 18 18 18 18 18
34 33 32 33 34 34 34 31 31 30 30 29 29 28 27 26 26 25 24 23 22 21 21 20 20 20 19 19 19 19 19 19 19 18 18 18 18 18 18 18 18 18 18 18 18 18 18 18 18
33 33 32 32 34 34 33 33 32 32 31 30 29 28 27 26 26 25 24 23 22 21 21 20 20 20 19 19 19 19 19 19 19 18 18 18 18 18 18 18 18 18 18 18 18 18 18 18 18
34 33 33 33 34 33 33 33 32 32 32 31 30 29 28 27 26 25 24 23 22 21 21 21 20 20 19 19 19 19 19 19 19 19 18 18 18 18 18 18 18 18 18 18 18 18 18 18 18
34 33 33 34 34 34 34 34 33 33 32 31 31 29 28 28 26 25 25 24 23 22 21 21 20 20 20 20 20 19 19 19 19 19 19 19 18 18 18 18 18 18 18 18 18 18 18 18 18
34 34 34 34 34 34 33 32 33 33 32 32 31 30 29 28 27 26 25 24 23 22 22 21 21 20 20 20 20 19 19 19 19 19 19 19 19 18 18 18 18 18 18 18 18 18 18 18 18
33 35 35 34 33 33 33 31 32 32 32 32 32 31 30 29 28 26 25 24 24 23 22 21 21 21 21 20 20 20 19 19 19 19 19 19 19 18 18 18 18 18 18 18 18 18 18 18 18
34 35 35 34 33 32 32 31 31 32 31 31 32 31 31 29 28 27 26 25 24 23 22 22 21 21 21 20 20 20 20 20 19 19 19 19 19 18 18 18 18 18 18 18 18 18 18 18 18
35 34 34 33 32 30 32 31 31 32 31 31 31 31 31 30 29 27 26 25 24 24 23 22 21 21 21 21 20 20 20 20 19 19 19 19 19 19 18 18 18 18 18 18 18 18 18 18 18
34 33 31 31 30 30 33 32 32 32 33 32 32 31 31 30 29 27 26 25 24 24 23 22 22 21 21 21 20 20 20 20 19 19 19 19 19 19 19 18 18 18 18 18 18 18 18 18 18
33 33 31 30 30 31 32 31 32 33 33 33 33 32 31 30 29 28 26 25 24 24 23 22 21 21 21 21 20 20 20 20 19 19 19 19 19 19 19 19 18 18 18 18 18 18 18 18 18
33 33 33 31 31 30 30 30 31 32 33 33 33 32 31 30 29 28 27 26 25 24 23 22 22 21 21 21 20 20 20 20 20 19 19 19 19 19 19 19 19 18 18 18 18 18 18 17 17
34 33 33 31 29 29 29 29 30 31 31 32 32 31 30 30 29 28 27 26 25 24 23 23 22 21 21 20 20 20 20 20 20 19 19 19 19 19 19 19 18 18 18 18 17 17 17 17 17
32 32 32 31 31 29 29 29 31 31 30 30 31 30 29 29 28 28 27 26 25 24 23 22 21 21 20 20 20 20 20 20 20 19 19 19 19 19 18 18 18 18 18 18 17 17 17 17 17
33 33 32 30 30 30 29 29 32 31 31 30 30 29 28 28 27 27 26 25 24 23 23 22 21 21 20 20 20 20 19 19 19 19 19 19 19 18 18 18 18 18 18 18 17 17 17 17 17
Wind_Speed
10 11 10 7 4 4 14 14 13 13 14 13 14 14 15 14 11 10 10 13 14 13 13 14 13 13 12 13 13 13 14 14 14 14 14 14 13 14 14 14 13 14 14 15 15 15 15 15 15
10 12 9 5 1 9 13 13 14 13 12 12 15 17 18 16 15 13 12 13 13 13 13 13 14 13 13 13 13 13 14 13 13 13 13 13 13 13 13 13 13 13 14 15 15 15 14 14 14
12 14 7 2 9 12 13 12 12 12 11 12 15 15 13 12 14 12 13 14 14 14 15 15 14 14 13 13 12 13 13 13 13 12 12 12 12 12 12 12 12 12 13 14 14 14 14 14 13
7 8 5 5 15 15 13 11 11 13 12 12 13 13 14 13 14 15 15 14 15 15 16 15 14 14 13 13 12 12 12 13 13 12 12 11 11 11 11 11 12 12 12 13 13 13 13 13 12
9 5 1 11 15 14 13 12 12 13 13 14 16 16 15 15 16 16 15 14 15 15 15 15 15 14 13 13 13 12 12 12 12 12 11 10 11 11 10 11 12 12 13 13 13 12 12 11 10
6 4 4 11 14 13 12 12 13 14 14 15 17 18 14 14 13 14 14 14 14 15 15 14 14 14 13 13 12 12 12 12 12 11 11 10 10 10 10 12 12 12 13 13 12 11 11 10 9
8 2 8 12 13 12 13 12 12 13 13 13 15 17 13 13 13 13 13 14 14 15 14 13 13 13 13 12 12 12 11 11 10 10 10 10 10 10 11 11 12 12 12 12 11 10 10 9 7
5 3 8 10 12 13 13 13 12 13 12 11 11 12 14 14 13 14 14 13 12 12 12 12 13 13 12 12 11 11 11 10 10 10 10 10 9 10 11 11 11 11 11 10 10 9 8 7 6
3 3 8 9 10 12 12 13 12 12 12 11 11 16 17 16 15 14 13 12 10 10 9 10 10 10 11 12 12 11 10 9 9 9 10 10 8 9 9 11 12 11 10 9 9 8 7 7 6
2 6 10 8 9 11 11 11 11 11 12 14 16 18 18 15 14 13 13 12 11 10 9 8 8 8 8 9 11 9 8 9 8 9 9 8 6 7 10 13 12 11 10 9 8 8 8 7 7
4 8 8 8 10 10 10 9 8 11 12 14 17 18 16 15 13 12 12 12 11 10 9 9 8 6 6 6 7 6 6 7 7 8 8 6 6 7 9 8 9 9 9 8 8 8 8 8 6
2 6 7 7 8 9 9 9 10 11 13 16 17 17 16 14 12 11 11 12 11 10 9 9 8 5 4 4 4 5 4 4 5 7 7 6 3 3 5 5 7 7 6 6 6 5 5 3 3
1 3 6 7 8 8 9 10 11 13 15 17 17 16 15 14 12 11 11 11 11 9 9 9 8 6 4 3 1 3 3 4 6 7 6 6 3 3 3 3 3 4 5 5 3 3 2 2 1
1 2 4 6 7 7 8 9 9 13 15 16 15 15 15 13 13 12 11 11 11 9 8 9 8 7 5 3 1 2 3 4 5 5 7 6 4 4 3 3 2 2 3 4 4 3 2 2 1
6 4 3 4 6 6 6 7 9 13 15 15 15 13 14 14 13 12 11 11 11 9 8 8 8 8 5 4 3 3 2 4 3 4 7 5 4 4 3 3 2 2 3 3 2 2 2 3 2
9 7 5 5 5 6 6 6 13 13 14 15 15 14 13 12 13 13 13 12 11 10 9 7 8 9 6 4 2 2 2 3 3 5 6 5 4 3 2 2 2 2 3 3 2 2 2 2 1
12 9 6 6 6 5 7 8 14 16 16 14 14 14 14 13 13 13 14 13 11 10 9 7 6 8 7 5 3 2 2 2 3 4 4 4 4 4 2 2 2 2 2 1 2 2 1 2 2
9 6 6 7 6 7 7 8 14 16 16 16 16 15 15 15 14 14 13 13 12 11 10 8 7 7 7 6 4 2 3 3 3 3 4 5 5 5 4 2 2 2 1 1 1 2 1 1 1
10 10 8 7 6 7 8 9 14 14 14 15 15 16 16 16 16 15 14 14 14 12 10 9 8 7 6 5 5 4 4 3 3 3 5 5 4 5 4 2 3 2 1 2 2 2 2 2 2
12 13 11 7 8 8 8 7 11 14 14 15 16 17 17 17 17 16 15 14 14 13 11 10 9 9 7 5 4 4 4 4 4 3 5 6 6 5 5 4 3 3 2 3 3 2 2 2 3
15 14 11 8 8 9 8 8 9 11 11 14 16 17 17 18 19 17 16 14 14 14 13 12 10 9 8 7 5 4 3 3 3 4 4 4 5 5 3 4 3 3 4 3 4 4 4 3 3
16 13 10 10 10 8 7 8 9 11 11 12 14 15 16 16 18 18 17 16 15 15 14 11 11 9 8 8 7 7 6 5 5 4 4 4 5 4 4 4 4 3 3 3 4 4 4 4 4
15 13 12 11 11 11 9 8 7 8 12 12 13 15 15 16 18 18 17 15 15 15 15 13 11 10 9 8 7 6 5 4 4 4 4 4 4 4 4 4 4 3 3 3 3 3 4 4 4
14 14 13 12 11 13 13 12 8 8 10 11 12 14 15 16 17 17 16 14 13 14 14 14 12 10 9 9 8 7 6 5 4 4 5 5 4 4 5 5 4 4 3 3 3 3 4 3 3
15 13 11 11 11 13 13 13 7 8 10 12 13 14 15 15 16 16 17 16 14 14 13 13 13 11 10 10 8 7 6 5 5 5 5 4 4 4 4 4 4 3 3 3 3 3 3 4 4
17 17 13 13 12 11 10 9 6 4 6 8 11 14 15 15 16 16 16 15 14 14 14 14 13 11 10 9 8 6 6 5 5 5 4 4 3 3 3 4 4 4 4 4 3 4 4 4 4
18 16 16 15 15 12 8 6 7 4 6 6 8 12 15 14 15 16 15 15 14 13 12 13 13 11 10 10 8 7 6 5 5 4 4 3 2 3 4 4 4 4 4 4 3 3 4 4 5
19 16 12 13 11 13 10 9 8 8 7 7 6 7 9 11 13 14 14 14 13 12 11 12 13 11 10 9 8 8 7 5 4 4 4 3 2 2 3 3 4 4 4 5 4 4 4 4 4
16 16 13 10 10 12 11 8 5 5 4 5 6 6 7 10 11 12 12 11 11 11 11 10 11 11 10 9 7 6 7 6 5 4 3 3 3 3 3 3 3 4 4 4 4 5 5 4 4
17 17 16 12 10 12 12 7 2 3 4 4 5 7 7 6 8 9 11 11 9 9 9 9 9 10 10 9 8 7 6 6 5 5 4 3 3 3 3 3 3 4 4 4 5 6 5 4 5
Wind_Direction
190 208 214 235 241 75 68 71 71 66 64 60 63 70 65 60 73 93 105 102 104 108 112 108 104 99 99 99 99 99 100 98 97 98 99 98 98 99 101 104 106 108 111 110 110 110 110 111 111
214 218 224 246 86 71 72 72 73 73 75 77 71 72 72 71 86 102 105 105 108 111 113 109 109 106 104 104 105 102 102 101 99 99 101 99 100 102 103 107 109 110 112 112 113 113 112 114 115
244 243 250 236 66 72 77 78 85 88 82 81 79 68 68 85 94 107 114 117 111 107 108 112 113 110 107 107 107 106 105 104 103 103 103 103 103 103 105 110 113 114 114 115 114 114 113 115 118
243 241 239 71 72 74 81 88 94 93 87 84 85 80 78 89 102 112 118 117 113 113 111 114 115 113 110 109 111 109 108 107 107 105 105 105 106 107 109 115 118 118 117 116 116 115 114 116 119
243 260 110 75 76 81 84 90 92 89 89 87 89 94 92 96 107 116 120 119 114 112 114 117 119 115 114 113 112 113 111 110 109 107 106 106 106 107 112 116 119 121 120 119 118 118 120 121 123
264 253 81 85 83 84 88 90 91 92 96 99 103 103 103 112 115 117 116 116 114 113 114 119 123 122 119 116 113 116 116 115 115 114 111 110 109 109 113 116 120 121 123 123 123 123 124 127 130
260 357 78 88 92 85 82 86 91 95 97 104 112 110 116 120 121 118 114 111 114 116 121 126 128 126 121 118 118 120 120 119 122 122 119 118 117 116 118 119 121 123 125 126 127 128 128 133 140
297 20 71 83 92 91 89 83 83 93 92 103 113 115 127 130 129 120 113 108 109 116 123 134 137 136 134 128 126 124 126 127 129 129 131 130 128 127 128 127 126 128 130 133 135 136 141 146 159
305 43 67 80 92 100 100 99 95 99 102 94 90 114 129 134 131 126 121 116 115 113 119 127 131 143 142 136 134 137 137 140 143 143 146 148 151 143 142 131 133 135 139 144 147 151 159 166 183
49 69 82 93 100 106 105 109 118 116 110 104 105 117 130 136 138 137 133 130 128 123 121 121 125 136 142 136 139 152 148 156 163 154 158 170 157 143 135 135 141 147 151 156 167 174 180 193 198
59 83 83 90 103 111 112 113 118 120 121 124 128 133 139 143 144 141 136 134 133 132 125 122 117 120 125 126 143 147 144 156 155 149 154 157 148 144 136 149 156 165 171 176 175 193 208 204 201
73 99 113 106 107 107 105 105 94 91 114 128 134 140 144 148 147 144 137 134 133 132 130 125 119 110 104 112 124 141 146 149 141 145 158 154 152 143 140 155 165 176 176 173 178 205 210 190 174
144 117 117 117 119 115 114 110 106 106 115 125 137 145 150 150 149 143 137 136 135 137 134 125 121 114 104 97 125 134 132 133 139 151 158 152 145 135 132 142 163 173 156 159 171 187 165 143 113
242 183 141 133 133 140 138 128 121 121 126 133 143 152 156 155 154 147 144 143 140 140 136 131 129 131 130 133 120 110 124 130 138 152 150 159 147 137 141 142 146 156 154 157 169 171 145 147 149
238 213 186 176 172 160 146 128 127 137 140 146 152 159 157 158 155 152 150 149 146 144 142 140 145 144 150 157 170 150 155 145 137 129 137 155 147 135 140 141 161 169 169 154 171 160 159 165 165
248 223 216 219 209 169 183 155 143 153 157 158 161 163 160 160 160 158 156 156 153 150 148 160 158 149 156 159 171 162 167 136 135 138 144 150 135 154 167 159 158 168 181 167 172 184 165 147 154
248 228 220 222 230 210 202 167 156 170 167 166 167 166 165 169 167 162 162 160 156 151 153 162 146 151 158 162 169 178 150 130 138 142 144 145 152 162 184 144 131 193 182 154 187 137 149 148 167
251 245 223 227 222 240 226 167 163 174 173 173 173 171 171 175 173 166 165 162 158 157 157 163 159 155 160 162 170 173 166 150 146 145 142 154 174 177 186 173 176 208 158 145 134 113 138 173 189
261 261 244 229 216 244 232 177 173 181 181 177 175 174 176 178 173 168 171 167 164 161 162 166 169 161 165 170 175 174 174 177 167 163 154 162 178 180 178 179 164 188 176 174 181 161 181 195 177
254 259 254 236 208 234 239 207 184 185 192 186 183 178 178 177 172 171 174 172 169 166 167 169 171 169 176 174 181 175 172 180 172 167 153 169 182 190 191 186 198 192 193 200 192 188 211 212 183
250 252 255 255 237 237 251 237 199 192 206 194 186 183 181 179 174 174 178 177 173 171 172 176 176 174 182 174 176 177 166 186 171 168 162 176 192 199 209 184 206 208 209 203 201 206 209 219 215
254 255 259 260 259 255 255 255 214 196 202 204 195 185 182 179 174 174 178 180 179 175 176 171 172 173 177 179 187 189 189 192 182 169 172 179 191 195 202 196 205 229 224 218 216 204 215 219 230
256 263 261 260 260 262 246 259 247 200 202 204 202 189 185 178 175 175 180 180 179 177 175 171 169 173 178 186 190 199 199 189 178 164 173 180 188 196 200 199 199 216 222 228 223 217 222 226 230
258 262 261 259 260 254 242 240 238 213 198 189 202 194 183 177 172 170 173 170 175 174 173 170 166 173 178 186 192 198 204 194 181 175 178 190 193 201 200 199 201 212 215 226 225 226 217 226 236
242 247 249 248 243 248 247 245 232 201 194 191 189 189 179 173 170 169 169 170 174 172 170 167 166 175 181 187 192 192 197 194 187 187 194 207 197 195 200 201 198 206 211 219 219 229 228 227 234
236 239 240 249 255 257 258 258 250 204 190 192 181 175 173 172 172 170 171 170 173 174 169 165 166 173 180 184 185 187 184 195 196 204 206 208 205 191 177 191 204 205 215 224 218 226 231 231 235
243 242 244 250 261 271 268 271 275 224 205 195 184 171 169 171 173 170 170 170 171 173 169 165 163 170 178 184 181 181 184 196 200 198 206 213 194 194 183 197 209 214 223 238 229 235 239 235 231
241 244 247 249 254 263 262 249 237 199 204 185 174 157 155 163 168 164 165 168 170 170 163 163 163 170 174 180 183 185 190 193 191 195 209 201 197 193 192 202 211 217 228 236 234 241 238 237 242
230 237 245 258 263 263 265 261 248 171 177 178 179 155 148 156 163 159 154 155 159 161 162 160 161 166 171 177 180 182 182 187 187 196 205 198 197 190 204 214 220 223 230 236 237 241 242 240 250
241 236 237 242 250 263 269 264 254 172 161 152 128 110 118 131 143 141 141 141 152 157 158 162 164 171 174 174 175 178 177 180 189 196 201 196 194 198 208 212 226 239 236 232 236 244 246 241 244
Height
1471 1471 1472 1475 1473 1470 1473 1472 1470 1472 1473 1475 1476 1478 1483 1486 1492 1504 1506 1505 1505 1504 1504 1505 1506 1507 1508 1509 1510 1511 1512 1513 1514 1515 1516 1517 1518 1519 1520 1522 1523 1524 1526 1527 1529 1530 1532 1533 1534
1471 1472 1475 1472 1470 1478 1479 1471 1473 1475 1477 1478 1480 1482 1487 1492 1496 1502 1505 1506 1506 1506 1506 1507 1509 1510 1511 1512 1513 1513 1514 1515 1516 1517 1518 1519 1520 1521 1522 1523 1524 1526 1528 1529 1531 1532 1534 1536 1537
1471 1473 1474 1465 1465 1475 1478 1471 1472 1475 1478 1479 1483 1487 1492 1497 1500 1503 1506 1508 1508 1508 1509 1510 1511 1512 1513 1514 1515 1515 1516 1517 1518 1519 1520 1521 1522 1523 1523 1524 1526 1527 1529 1531 1533 1535 1536 1538 1539
1472 1472 1469 1462 1468 1467 1468 1470 1472 1475 1479 1481 1484 1491 1497 1501 1503 1506 1508 1509 1510 1510 1511 1512 1513 1514 1515 1515 1517 1517 1518 1519 1520 1521 1521 1522 1523 1524 1524 1525 1526 1528 1530 1533 1535 1537 1538 1540 1542
1473 1470 1465 1466 1468 1465 1466 1468 1472 1475 1480 1483 1488 1495 1501 1505 1506 1508 1509 1511 1512 1513 1513 1514 1515 1516 1516 1517 1518 1519 1520 1521 1522 1522 1523 1523 1524 1525 1525 1526 1528 1530 1532 1534 1537 1539 1541 1542 1544
1471 1462 1468 1473 1470 1466 1466 1469 1473 1477 1482 1486 1491 1497 1504 1507 1509 1510 1512 1513 1514 1515 1515 1516 1517 1518 1518 1519 1520 1521 1522 1523 1523 1524 1524 1525 1525 1526 1527 1527 1529 1531 1534 1536 1539 1541 1543 1545 1546
1466 1460 1465 1467 1470 1470 1468 1471 1473 1478 1482 1486 1491 1497 1504 1508 1510 1512 1514 1515 1516 1517 1518 1518 1519 1520 1520 1521 1522 1523 1523 1524 1525 1525 1525 1526 1527 1528 1529 1530 1531 1533 1536 1538 1540 1543 1545 1547 1548
1461 1459 1464 1467 1470 1472 1471 1474 1476 1480 1484 1488 1491 1496 1504 1509 1511 1513 1515 1517 1518 1519 1520 1520 1521 1522 1522 1523 1524 1525 1525 1525 1526 1526 1527 1528 1529 1530 1531 1532 1534 1535 1538 1540 1542 1545 1547 1549 1550
1460 1464 1471 1469 1470 1470 1471 1475 1479 1483 1486 1489 1492 1497 1504 1508 1511 1514 1516 1518 1520 1522 1522 1523 1523 1524 1525 1525 1526 1526 1526 1527 1527 1528 1529 1530 1531 1532 1533 1535 1536 1538 1540 1542 1544 1546 1548 1550 1552
1458 1468 1468 1464 1464 1467 1471 1475 1478 1482 1486 1491 1496 1501 1505 1509 1512 1514 1517 1519 1521 1523 1524 1525 1525 1526 1527 1528 1527 1527 1528 1528 1528 1529 1530 1532 1533 1534 1536 1537 1539 1541 1542 1544 1546 1548 1550 1552 1553
1458 1463 1462 1462 1464 1467 1470 1474 1475 1479 1486 1491 1497 1502 1506 1509 1512 1515 1517 1519 1521 1523 1525 1526 1527 1528 1529 1529 1529 1529 1529 1529 1530 1531 1532 1534 1535 1536 1538 1539 1541 1543 1544 1546 1548 1549 1551 1553 1555
1459 1459 1461 1463 1465 1467 1470 1473 1476 1480 1486 1492 1497 1502 1506 1509 1512 1515 1517 1520 1522 1524 1526 1527 1527 1528 1529 1530 1530 1531 1531 1531 1531 1532 1534 1535 1537 1538 1540 1541 1542 1544 1545 1547 1548 1550 1552 1554 1555
1459 1459 1460 1463 1465 1468 1471 1474 1478 1483 1488 1493 1498 1502 1505 1509 1512 1515 1518 1520 1522 1524 1526 1527 1527 1528 1529 1531 1531 1532 1532 1533 1533 1534 1535 1537 1538 1539 1541 1542 1544 1545 1546 1547 1549 1551 1552 1554 1555
1459 1459 1460 1462 1465 1467 1470 1474 1479 1485 1489 1494 1498 1502 1505 1508 1511 1515 1517 1520 1522 1524 1526 1527 1528 1528 1529 1531 1532 1533 1534 1534 1535 1535 1537 1538 1539 1540 1542 1543 1544 1546 1547 1548 1550 1551 1552 1554 1555
1458 1459 1461 1462 1462 1465 1469 1476 1479 1485 1489 1493 1497 1501 1504 1507 1510 1514 1517 1519 1521 1523 1525 1527 1528 1528 1529 1531 1532 1533 1534 1535 1536 1536 1538 1538 1540 1541 1542 1543 1545 1546 1547 1548 1550 1551 1552 1553 1555
1457 1462 1471 1464 1461 1463 1471 1483 1479 1483 1487 1491 1495 1499 1503 1506 1509 1513 1516 1518 1520 1522 1524 1526 1528 1528 1529 1531 1532 1534 1535 1536 1536 1537 1538 1539 1540 1541 1542 1543 1544 1546 1547 1548 1550 1551 1552 1553 1554
1463 1470 1473 1466 1459 1461 1466 1476 1476 1480 1483 1488 1492 1496 1501 1505 1508 1511 1514 1517 1519 1521 1523 1525 1527 1528 1529 1531 1532 1534 1535 1536 1537 1537 1538 1539 1540 1541 1542 1543 1545 1546 1547 1548 1549 1550 1552 1552 1553
1470 1470 1471 1469 1460 1460 1464 1468 1471 1475 1478 1483 1488 1493 1498 1502 1506 1509 1512 1515 1517 1520 1522 1524 1526 1527 1529 1531 1532 1533 1535 1536 1537 1537 1538 1539 1540 1541 1542 1543 1544 1545 1547 1548 1549 1550 1551 1552 1553
1458 1463 1467 1463 1457 1462 1463 1464 1466 1470 1474 1479 1484 1489 1494 1498 1503 1507 1510 1513 1516 1518 1520 1522 1524 1526 1527 1529 1531 1532 1533 1535 1536 1537 1538 1538 1539 1540 1541 1542 1543 1545 1546 1547 1548 1549 1550 1551 1552
1457 1462 1462 1456 1452 1457 1459 1460 1460 1465 1468 1473 1478 1483 1488 1494 1499 1503 1507 1511 1513 1515 1518 1520 1522 1524 1526 1528 1529 1531 1533 1534 1535 1536 1537 1538 1539 1540 1541 1541 1543 1544 1545 1546 1547 1547 1548 1550 1551
1456 1458 1458 1457 1453 1452 1458 1465 1461 1461 1465 1469 1473 1478 1483 1488 1493 1498 1503 1507 1510 1513 1515 1518 1520 1522 1524 1526 1528 1531 1532 1533 1535 1536 1536 1537 1538 1539 1540 1541 1542 1543 1544 1544 1545 1546 1547 1547 1549
1458 1447 1448 1453 1460 1463 1463 1480 1464 1459 1463 1466 1469 1473 1477 1483 1489 1494 1499 1503 1507 1510 1513 1515 1518 1520 1522 1525 1527 1529 1530 1532 1533 1534 1535 1536 1537 1538 1539 1540 1540 1541 1542 1543 1543 1544 1545 1545 1546
1448 1442 1445 1451 1459 1466 1464 1477 1469 1457 1464 1464 1465 1468 1473 1478 1484 1490 1495 1499 1503 1507 1510 1513 1515 1518 1520 1523 1525 1527 1529 1531 1532 1533 1534 1535 1536 1537 1537 1538 1539 1539 1540 1541 1541 1542 1542 1543 1544
1442 1445 1447 1450 1460 1478 1464 1470 1472 1458 1458 1458 1461 1463 1468 1473 1479 1485 1491 1496 1500 1504 1507 1510 1512 1515 1518 1520 1523 1525 1527 1529 1530 1531 1532 1533 1534 1535 1536 1536 1537 1537 1538 1538 1539 1539 1540 1541 1541
1444 1457 1472 1479 1480 1476 1455 1459 1458 1446 1445 1449 1454 1458 1463 1469 1476 1481 1487 1491 1496 1500 1504 1507 1509 1512 1515 1518 1520 1523 1524 1526 1528 1529 1530 1531 1532 1533 1534 1535 1535 1535 1536 1536 1537 1537 1538 1538 1539
1444 1451 1473 1488 1484 1470 1456 1461 1451 1440 1441 1444 1448 1453 1459 1466 1472 1478 1483 1488 1493 1497 1501 1503 1506 1509 1512 1515 1517 1520 1522 1524 1525 1527 1528 1529 1530 1531 1532 1532 1533 1533 1534 1534 1534 1535 1535 1536 1536
1444 1445 1443 1459 1466 1474 1467 1463 1452 1441 1442 1444 1446 1450 1456 1462 1468 1474 1480 1485 1490 1494 1497 1500 1503 1506 1509 1512 1515 1517 1519 1521 1523 1525 1526 1527 1528 1529 1529 1530 1530 1531 1531 1531 1532 1532 1532 1533 1533
1435 1438 1446 1457 1476 1483 1474 1469 1460 1448 1446 1444 1447 1450 1456 1461 1465 1471 1476 1482 1487 1492 1495 1498 1500 1503 1506 1510 1512 1515 1517 1518 1520 1522 1523 1524 1525 1526 1527 1527 1527 1528 1528 1529 1529 1529 1529 1530 1530
1438 1441 1444 1449 1455 1474 1483 1473 1443 1442 1444 1447 1449 1452 1456 1460 1464 1468 1474 1480 1485 1489 1493 1496 1498 1501 1504 1507 1509 1512 1514 1515 1517 1519 1520 1521 1522 1523 1524 1524 1524 1525 1525 1526 1526 1526 1527 1527 1527
1428 1433 1440 1456 1461 1459 1467 1466 1438 1438 1442 1446 1449 1453 1457 1460 1465 1468 1473 1478 1483 1487 1490 1493 1496 1499 1501 1504 1507 1509 1510 1513 1514 1515 1517 1518 1519 1520 1521 1521 1521 1522 1522 1522 1523 1523 1523 1524 1523